Location: Buisson
(44.2787°N, 4.9969°E)
Time: 07:33:49
(UTC+00:00)

NOSS 3-3 (A) - Pass Details

Date: 18 April 2021
Orbit: 813 x 1399 km, 63.4° (Epoch: 02 May)

Event Time Altitude Azimuth Distance (km) Brightness Sun altitude
Exits shadow 02:25:32 49° 248° (WSW) 1,156 4.0 -23.2°
Maximum altitude 02:27:06 69° 310° (NW) 993 3.9 -23.0°
Drops below altitude 10° 02:33:39 10° 34° (NE) 2,836 7.5 -22.2°
Sets 02:36:29 0° 37° (NE) 3,885 8.6 -21.8°
